KB3KAV Weather Reports


Display with metric or nautical units.
time (UTC)temp
F
wind
direction
speed
MPH
gust
MPH
rain 1hr
in
rain 24hr
in
rain mn
in
humidity
%
barometer
mb
20260510130156 59 303 4.0 6.0 0.00 0.00 0.00 82 1041.7
20260510125154 58 42 3.0 3.0 0.00 0.00 0.00 84 1041.5
20260510124154 56 142 2.0 2.0 0.00 0.00 0.00 93 1041.6
20260510123152 55 1 3.0 5.0 0.00 0.00 0.00 95 1041.8
20260510122150 55 86 1.0 1.0 0.00 0.00 0.00 95 1041.8
20260510121150 54 102 0.0 0.0 0.00 0.00 0.00 95 1041.8
20260510120149 52 101 0.0 0.0 0.00 0.00 0.00 95 1041.4
20260510115150 51 95 0.0 0.0 0.00 0.00 0.00 95 1041.2
20260510114148 50 100 0.0 0.0 0.00 0.00 0.00 95 1041.2
20260510113146 48 90 0.0 0.0 0.00 0.00 0.00 95 1041.2
20260510112146 48 91 0.0 0.0 0.00 0.00 0.00 95 1040.9
20260510111144 46 85 0.0 0.0 0.00 0.00 0.00 95 1040.7
20260510110143 46 84 0.0 0.0 0.00 0.00 0.00 95 1040.5
20260510105138 46 94 0.0 0.0 0.00 0.00 0.00 95 1040.2
20260510104137 45 94 0.0 0.0 0.00 0.00 0.00 95 1040.4
20260510103137 45 95 0.0 0.0 0.00 0.00 0.00 95 1040.4
20260510102134 45 88 0.0 0.0 0.00 0.00 0.00 95 1040.2
20260510101130 45 88 0.0 0.0 0.00 0.00 0.00 95 1040.1
20260510100128 46 88 0.0 0.0 0.00 0.00 0.00 95 1040.0
20260510095124 46 87 0.0 0.0 0.00 0.00 0.00 95 1039.9
20260510094124 46 87 0.0 0.0 0.00 0.00 0.00 95 1040.0
20260510093124 46 87 0.0 0.0 0.00 0.00 0.00 95 1039.9
20260510092121 46 87 0.0 0.0 0.00 0.00 0.00 95 1039.9
20260510091119 46 87 0.0 0.0 0.00 0.00 0.00 95 1039.6
20260510090118 45 88 0.0 0.0 0.00 0.00 0.00 95 1039.9
20260510085115 45 90 0.0 0.0 0.00 0.00 0.00 95 1039.9
20260510084114 45 89 0.0 0.0 0.00 0.00 0.00 95 1039.8
20260510083113 45 89 0.0 0.0 0.00 0.00 0.00 95 1039.5
20260510082111 45 89 0.0 0.0 0.00 0.00 0.00 95 1039.3
20260510081108 45 89 0.0 0.0 0.00 0.00 0.00 95 1039.1
20260510080104 46 77 1.0 1.0 0.00 0.00 0.00 95 1039.0
20260510075104 46 94 0.0 0.0 0.00 0.00 0.00 95 1039.1
20260510074103 45 86 0.0 0.0 0.00 0.00 0.00 95 1038.8
20260510073102 45 87 0.0 0.0 0.00 0.00 0.00 95 1038.7
20260510072100 45 92 0.0 0.0 0.00 0.00 0.00 95 1038.7
20260510071100 45 99 0.0 0.0 0.00 0.00 0.00 95 1039.0
20260510070100 45 87 0.0 0.0 0.00 0.00 0.00 95 1039.2
20260510065058 45 86 0.0 0.0 0.00 0.00 0.00 95 1039.3
20260510064058 45 86 0.0 0.0 0.00 0.00 0.00 95 1039.7
20260510063057 45 86 0.0 0.0 0.00 0.00 0.00 95 1039.7
20260510062054 45 97 0.0 0.0 0.00 0.00 0.00 95 1039.6
20260510061054 45 94 0.0 0.0 0.00 0.00 0.00 95 1040.3
20260510060052 44 82 0.0 0.0 0.00 0.00 0.00 95 1040.6
20260510055053 44 88 0.0 0.0 0.00 0.00 0.00 95 1040.7
20260510054049 44 89 0.0 0.0 0.00 0.00 0.00 95 1040.4
20260510053046 44 89 0.0 0.0 0.00 0.00 0.00 95 1040.5
20260510052044 44 89 0.0 0.0 0.00 0.00 0.00 95 1040.6
20260510051042 43 74 0.0 0.0 0.00 0.00 0.00 95 1040.6
20260510050042 43 80 0.0 0.0 0.00 0.00 0.00 95 1040.0
20260510045041 43 80 0.0 0.0 0.00 0.00 0.00 95 1039.9
20260510044042 43 82 0.0 0.0 0.00 0.00 0.00 95 1039.9
20260510043039 44 81 0.0 0.0 0.00 0.00 0.00 95 1039.9
20260510042033 44 81 0.0 0.0 0.00 0.00 0.00 95 1040.0
20260510041028 44 81 0.0 0.0 0.00 0.00 0.00 95 1039.7
20260510040026 44 81 0.0 0.0 0.00 0.53 0.53 95 1039.2
20260510035022 45 81 0.0 0.0 0.00 0.53 0.53 95 1039.2
20260510034017 45 81 0.0 0.0 0.00 0.53 0.53 95 1039.1
20260510033017 45 81 0.0 0.0 0.00 0.53 0.53 95 1039.0
20260510032014 45 84 0.0 0.0 0.00 0.53 0.53 95 1038.8
20260510031011 46 83 0.0 0.0 0.00 0.53 0.53 95 1038.9
20260510030011 46 83 0.0 0.0 0.00 0.53 0.53 95 1038.9
20260510025005 47 83 0.0 0.0 0.00 0.53 0.53 95 1038.9
20260510024004 47 81 0.0 0.0 0.00 0.53 0.53 95 1038.9
20260510023003 47 88 0.0 0.0 0.00 0.53 0.53 95 1039.0
20260510022001 48 82 0.0 0.0 0.00 0.53 0.53 95 1038.7
20260510021001 48 87 0.0 0.0 0.00 0.53 0.53 95 1039.0
20260510015958 48 91 0.0 0.0 0.00 0.53 0.53 95 1038.7
20260510014955 48 98 1.0 1.0 0.00 0.53 0.53 95 1038.9
20260510013955 49 90 0.0 0.0 0.00 0.53 0.53 95 1038.8
20260510012952 49 92 0.0 0.0 0.00 0.53 0.53 95 1038.8
20260510011948 49 85 0.0 0.0 0.00 0.53 0.53 95 1038.8
20260510010945 50 83 0.0 0.0 0.00 0.53 0.53 95 1038.0
20260510005945 50 91 0.0 0.0 0.00 0.53 0.53 95 1038.3
20260510004945 50 91 0.0 0.0 0.00 0.53 0.53 95 1038.0
20260510003940 50 90 0.0 1.0 0.00 0.53 0.53 95 1038.1
20260510002936 51 91 1.0 1.0 0.00 0.53 0.53 95 1038.0
20260510001935 51 91 0.0 0.0 0.00 0.53 0.53 95 1037.7
20260510000930 52 91 0.0 0.0 0.00 0.53 0.53 95 1037.7
20260509235928 52 92 0.0 0.0 0.00 0.53 0.53 95 1037.8
20260509234927 53 93 0.0 1.0 0.00 0.53 0.53 95 1037.9
20260509233923 53 96 0.0 0.0 0.00 0.53 0.53 94 1037.6
20260509232922 54 99 0.0 0.0 0.00 0.53 0.53 94 1037.4
20260509231921 54 92 0.0 0.0 0.00 0.53 0.53 94 1037.4
20260509230916 55 97 0.0 0.0 0.00 0.53 0.53 92 1037.4
20260509225914 55 98 1.0 1.0 0.00 0.53 0.53 91 1037.5
20260509224913 57 104 1.0 1.0 0.00 0.53 0.53 89 1037.6
20260509223911 58 97 0.0 0.0 0.00 0.53 0.53 85 1037.4
20260509222911 58 84 1.0 1.0 0.00 0.53 0.53 87 1037.1
20260509221907 57 116 1.0 2.0 0.00 0.53 0.53 85 1037.7
20260509220906 58 79 1.0 1.0 0.00 0.53 0.53 84 1037.5
20260509215904 58 345 3.0 3.0 0.00 0.53 0.53 85 1037.7
20260509214904 57 44 3.0 3.0 0.00 0.53 0.53 88 1037.8
20260509213858 57 125 1.0 2.0 0.00 0.53 0.53 89 1037.9
20260509212857 56 84 2.0 2.0 0.00 0.53 0.53 91 1037.8
20260509211856 55 49 2.0 2.0 0.00 0.53 0.53 93 1038.1
20260509210854 55 58 2.0 2.0 0.00 0.53 0.53 94 1038.1
20260509205851 53 106 1.0 1.0 0.00 0.53 0.53 94 1038.0
20260509204849 54 109 1.0 1.0 0.07 0.53 0.53 94 1038.1
20260509203847 53 121 2.0 2.0 0.00 0.52 0.52 95 1038.6
20260509202846 53 106 1.0 1.0 0.00 0.52 0.52 94 1038.7
20260509201843 53 105 1.0 1.0 0.00 0.52 0.52 93 1038.8
20260509200841 54 96 1.0 2.0 0.05 0.52 0.52 93 1038.5
20260509195839 54 84 2.0 2.0 0.00 0.51 0.51 93 1038.5
20260509194839 54 51 2.0 2.0 0.00 0.51 0.51 93 1038.3
20260509193838 53 90 0.0 0.0 0.00 0.51 0.51 94 1038.5
20260509192834 53 82 1.0 1.0 0.07 0.51 0.51 94 1038.7
20260509191831 52 81 1.0 1.0 0.12 0.50 0.50 94 1038.8
20260509190829 52 100 0.0 0.0 0.07 0.48 0.48 93 1039.0
20260509185824 52 115 0.0 0.0 0.17 0.47 0.47 94 1039.2
20260509184824 52 111 1.0 2.0 0.12 0.44 0.44 94 1039.4
20260509183823 52 60 3.0 3.0 0.19 0.42 0.42 94 1039.4
20260509182820 52 79 1.0 1.0 0.14 0.40 0.40 94 1039.5
20260509181821 52 71 1.0 2.0 0.17 0.38 0.38 94 1039.4
20260509180821 52 143 2.0 2.0 0.12 0.35 0.35 94 1039.5
20260509175819 53 87 1.0 1.0 0.12 0.33 0.33 95 1039.5
20260509174817 53 98 1.0 1.0 0.12 0.32 0.32 94 1039.7
20260509173815 53 333 4.0 5.0 0.05 0.30 0.30 94 1039.4
20260509172813 52 93 0.0 0.0 0.12 0.29 0.29 94 1039.5
20260509171812 52 90 0.0 1.0 0.07 0.27 0.27 94 1039.2
20260509170810 52 78 2.0 2.0 0.07 0.26 0.26 94 1039.3
20260509165806 52 12 2.0 2.0 0.05 0.25 0.25 94 1039.4
20260509164803 52 95 1.0 1.0 0.07 0.24 0.24 94 1039.3
20260509163801 52 88 0.0 1.0 0.17 0.23 0.23 94 1039.5
20260509162757 52 181 3.0 5.0 0.12 0.21 0.21 94 1039.6
20260509161753 53 90 0.0 0.0 0.12 0.19 0.19 94 1039.6
20260509160750 52 89 1.0 1.0 0.12 0.18 0.18 94 1039.7
20260509155748 52 117 6.0 9.0 0.12 0.16 0.16 94 1039.6
20260509154747 52 38 3.0 3.0 0.14 0.14 0.14 94 1039.6
20260509153747 52 298 3.0 3.0 0.00 0.12 0.12 95 1039.4
20260509152745 51 144 3.0 3.0 0.00 0.12 0.12 95 1039.6
20260509151745 52 66 3.0 3.0 0.05 0.12 0.12 95 1039.7
20260509150739 52 85 0.0 0.0 0.00 0.11 0.11 95 1039.7
20260509145734 52 94 0.0 0.0 0.07 0.11 0.11 95 1039.8
20260509144731 51 100 1.0 1.0 0.00 0.10 0.10 95 1039.8
20260509143731 51 92 0.0 0.0 0.00 0.10 0.10 95 1039.5
20260509142729 51 99 0.0 0.0 0.00 0.10 0.10 95 1039.5
20260509141727 51 100 0.0 0.0 0.05 0.10 0.10 95 1039.9
20260509140727 50 100 0.0 0.0 0.00 0.09 0.09 95 1039.9
20260509135722 50 100 0.0 0.0 0.07 0.09 0.09 95 1039.9
20260509134722 50 101 0.0 0.0 0.00 0.08 0.08 95 1040.1
20260509133717 50 101 0.0 0.0 0.05 0.08 0.08 95 1039.9
20260509132712 50 101 0.0 0.0 0.07 0.07 0.07 95 1040.1
20260509131712 50 101 0.0 0.0 0.00 0.06 0.06 95 1039.9
20260509130711 49 102 1.0 1.0 0.05 0.06 0.06 95 1039.9